Regional Weather Roundup
Issued by NWS

Home | Current Version | Previous Version | Graphics & Text | Print | Product List | Glossary On
Versions: 1 2 3 4 5 6 7 8 9 10 11 12 13 14 15 16 17 18 19 20 21 22 23 24 25 26 27 28 29 30 31 32 33 34 35 36 37 38 39 40 41 42 43 44 45 46 47 48 49 50
850
ASUS45 KCYS 220510
RWRWY

WYOMING REGIONAL WEATHER ROUNDUP
NATIONAL WEATHER SERVICE CHEYENNE WY
1100 PM MDT WED JUN 21 2017

NOTE:  "FAIR" INDICATES FEW OR NO CLOUDS BELOW 12,000 FEET
WITH NO SIGNIFICANT WEATHER AND/OR OBSTRUCTIONS TO VISIBILITY.

WYZ001-220600-
YELLOWSTONE NATIONAL PARK

CITY           SKY/WX    TMP DP  RH WIND       PRES   REMARKS
LK YELLOWSTONE   N/A     56  42  59 W3        30.15S
W YELLOWSTONE  NOT AVBL

$$
WYZ002>013-054>058-071-098>099-220600-
NORTHERN WYOMING

CITY           SKY/WX    TMP DP  RH WIND       PRES   REMARKS
JACKSON        FAIR      63  37  39 CALM      30.05S
CODY           FAIR      68  49  50 CALM      29.94R
GREYBULL       FAIR      79  42  26 NW14      29.79S
WORLAND        FAIR      77  48  35 NW14      29.81R
SHERIDAN       FAIR      62  55  77 S6        29.84F
BUFFALO        FAIR      67  51  56 NW8       29.92R
GILLETTE       FAIR      65  46  50 N7        29.84S
NEWCASTLE      FAIR      73  43  33 E18G25    29.78F

$$
WYZ014>020-022>026-101>103-220600-
CENTRAL WYOMING

CITY           SKY/WX    TMP DP  RH WIND       PRES   REMARKS
BIG PINEY      FAIR      54  40  59 NW9       30.11S
PINEDALE       FAIR      55  43  62 NE3       30.13S
DUBOIS         FAIR      59  36  41 NW8       30.06S
LANDER         FAIR      73  33  23 W8        29.93S
RIVERTON       FAIR      73  36  25 W14       29.91S
CASPER         FAIR      67  45  45 N9        29.89R
DOUGLAS        FAIR      66  54  65 E3        29.84F

$$
WYZ021-027>030-104>119-220600-
SOUTHERN WYOMING

CITY           SKY/WX    TMP DP  RH WIND       PRES   REMARKS
EVANSTON       FAIR      67  44  43 NW8       30.16R
KEMMERER         N/A     61  41  48 W9        30.15S
FORT BRIDGER   FAIR      66  47  50 W9        30.17S
ROCK SPRINGS   FAIR      69  42  37 W9        30.09R
DIXON          FAIR      65  39  38 E5        30.11S
RAWLINS        FAIR      69  35  28 W7        30.06S
SARATOGA       FAIR      72  32  23 SW14      30.09S
LARAMIE        FAIR      62  36  37 SW10      30.08F
CHEYENNE       FAIR      72  36  26 W15       29.98S
TORRINGTON     FAIR      73  48  41 E7        29.78F
PINE BLUFFS    FAIR      64  41  42 S7        29.90S

$$




USA.gov is the U.S. government's official web portal to all federal, state and local government web resources and services.